Regional Weather Roundup
Issued by NWS Northern Indiana

Home | Current Version | Previous Version | Text Only | Print | Product List | Glossary On
Versions: 1 2 3 4 5 6 7 8 9 10 11 12 13 14 15 16 17 18 19 20 21 22 23 24 25 26 27 28 29 30 31 32 33 34 35 36 37 38 39 40 41 42 43 44 45 46 47 48 49 50
000
ASUS43 KIWX 231210
RWRIWX

KIWX WEATHER ROUNDUP
NATIONAL WEATHER SERVICE NORTHERN INDIANA
800 AM EDT THU MAR 23 2017

NOTE: "FAIR" INDICATES FEW OR NO CLOUDS BELOW 12,000 FEET WITH NO
SIGNIFICANT WEATHER AND/OR OBSTRUCTIONS TO VISIBILITY.

* THESE STATIONS ARE NOT UNDER NWS QUALITY CONTROL. THEY ALSO MAY NOT
  REPORT WEATHER SUCH AS PRECIPITATION OR FOG.

INZ001>027-231300-
NORTHERN INDIANA

CITY           SKY/WX    TMP DP  RH WIND       PRES   REMARKS
GARY*          MOCLDY    32  18  55 SE12      30.44R WCI  23
VALPARAISO     CLOUDY    29  20  69 SE10      30.44S WCI  20
6HR MIN TEMP:  25; 6HR MAX TEMP:  29;

MICHIGAN CITY* CLOUDY    30  19  64 SE7       30.45S WCI  23
LAPORTE*       CLOUDY    28  20  72 SE8       30.44S WCI  19
6HR MIN TEMP:  23; 6HR MAX TEMP:  28;

KNOX*          CLOUDY    28   1  31 SE6       30.45R WCI  22
SOUTH BEND     CLOUDY    26  16  65 SE10      30.46S WCI  16
6HR MIN TEMP:  25; 6HR MAX TEMP:  28;

ELKHART*       PTCLDY    27  16  63 E9        30.46F WCI  17
GOSHEN         PTCLDY    26  14  60 E8        30.46F WCI  18
6HR MIN TEMP:  24; 6HR MAX TEMP:  27;

MONTICELLO*    CLOUDY    29  19  65 E7        30.43R WCI  22
6HR MIN TEMP:  28; 6HR MAX TEMP:  30;

LOGANSPORT*    MOCLDY    28  19  69 E13       30.43F WCI  18
ROCHESTER*     PTCLDY    30  18  59 E9        30.45S WCI  22
WARSAW*        MOCLDY    27  16  63 E12       30.46F WCI  16
ANGOLA*        CLEAR     21  12  68 SE7       30.49R WCI  13
FORT WAYNE     MOCLDY    24  16  71 E8        30.49R WCI  15
6HR MIN TEMP:  23; 6HR MAX TEMP:  26;

HUNTINGTON*    CLOUDY    24  15  70 E6        30.47S WCI  17
6HR MIN TEMP:  24; 6HR MAX TEMP:  27;

PERU/GRISSOM   CLOUDY    28  19  67 E12       30.41F WCI  18
6HR MIN TEMP:  27; 6HR MAX TEMP:  29;

MARION*        CLOUDY    27  18  71 E10G16    30.45F WCI  17
6HR MIN TEMP:  26; 6HR MAX TEMP:  36;


$$
INZ028>050-231300-
CENTRAL INDIANA

CITY           SKY/WX    TMP DP  RH WIND       PRES   REMARKS
LAFAYETTE      CLOUDY    26  21  81 E7        30.42S WCI  18
6HR MIN TEMP:  25; 6HR MAX TEMP:  29;

KOKOMO*        CLOUDY    27  21  78 E13       30.44S WCI  16
6HR MIN TEMP:  26; 6HR MAX TEMP:  29;

MUNCIE*        CLOUDY    27  19  72 E9        30.44S WCI  18
6HR MIN TEMP:  26; 6HR MAX TEMP:  29;

INDIANAPOLIS   MOCLDY    28  19  69 E10       30.42R WCI  19
6HR MIN TEMP:  28; 6HR MAX TEMP:  31;


$$
MIZ043>046-050>051-056>058-064>065-071>073-077>080-231300-
SOUTHWEST LOWER MICHIGAN

CITY           SKY/WX    TMP DP  RH WIND       PRES   REMARKS
BATTLE CREEK   PTCLDY    24  15  68 SE7       30.50R WCI  16
6HR MIN TEMP:  23; 6HR MAX TEMP:  28;

BENTON HARBOR  CLOUDY    27  16  63 SE9       30.46S WCI  18
6HR MIN TEMP:  20; 6HR MAX TEMP:  27;

COLDWATER*     CLOUDY    24  15  68 SE7       30.50S WCI  16
6HR MIN TEMP:  24; 6HR MAX TEMP:  26;

HILLSDALE*     CLOUDY    21  14  73 SE7       30.50R WCI  13
HOLLAND        PTCLDY    25  17  72 SE9       30.47F WCI  15
6HR MIN TEMP:  22; 6HR MAX TEMP:  25;

GRAND RAPIDS   CLOUDY    24  15  68 SE7       30.49S WCI  16
6HR MIN TEMP:  23; 6HR MAX TEMP:  27;

KALAMAZOO      MOCLDY    25  14  63 SE7       30.49S WCI  17
6HR MIN TEMP:  25; 6HR MAX TEMP:  28;

STURGIS*       PTCLDY    24  15  66 SE8       30.48S WCI  16
6HR MIN TEMP:  24; 6HR MAX TEMP:  27;

THREE RIVERS*  FAIR      25  15  67 SE6       30.48F WCI  18

$$
OHZ001>008-015>018-024>025-231300-
NORTHWEST OHIO

CITY           SKY/WX    TMP DP  RH WIND       PRES   REMARKS
WAUSEON*       FAIR      21  16  79 E6        30.54R WCI  14
DEFIANCE       CLOUDY    20  14  77 E5        30.53R WCI  13
6HR MIN TEMP:  19; 6HR MAX TEMP:  22;

FINDLAY        CLOUDY    22  13  68 E6        30.52R WCI  14
6HR MIN TEMP:  21; 6HR MAX TEMP:  24;

TOLEDO EXPRESS PTCLDY    22  15  75 CALM      30.55R
6HR MIN TEMP:  18; 6HR MAX TEMP:  23;

TOLEDO METCALF CLOUDY    22  16  78 E3        30.56R
6HR MIN TEMP:  20; 6HR MAX TEMP:  23;

LIMA           CLOUDY    22  14  71 SE9       30.49R WCI  12
6HR MIN TEMP:  20; 6HR MAX TEMP:  23;


$$
AND FOR LAKE MICHIGAN COASTAL AND OPEN LAKE BUOY OBSERVATIONS

STATION/POSITION TEMP    WIND        PRES    VSBY  WAVE
                 AIR SEA DIR/SP/G                  HT/PER
                 (F)     (DEG/KT/KT) (MB)    (MI)  (FT/S)
CALUMET HARBOR    31     130/  7/  9 1029.9R
MICHIGAN CITY     29     120/ 11/ 15   N/A
BURNS HARBOR      30     140/ 11/ 19 1031.2
SAINT JOSEPH      28     120/  2/  7 1031.2

$$
&&




USA.gov is the U.S. government's official web portal to all federal, state and local government web resources and services.